#timestamp,LO_Frequency,Hit,StdDev 
1680944415.7,286046999.6,N
1680944435.5,286046999.1,N
1680944455.4,286046999.5,N
1680944475.2,286046999.2,N
1680944495.1,286046996.5,Y
1680944496.0,286046996.5,P
1680944515.8,286046999.6,N
1680944535.6,286046996.7,N
1680944555.5,286046996.8,N
1680944575.3,286046999.2,N
1680944595.1,286046997.0,N
1680944615.9,286046996.7,N
1680944635.7,286046996.7,N
1680944655.6,286046998.8,N
1680944675.4,286046996.7,N
1680944695.2,286046999.6,N
1680944715.1,286046999.6,N
1680944716.0,286046999.6,N
1680944735.8,286046999.2,N
1680944755.6,286047000.5,N
1680944775.5,286047000.9,N
1680944795.3,286046999.2,N
1680944815.2,286046997.1,N
1680944835.9,286046999.6,N
1680944855.7,286046998.0,N
1680944875.6,286046995.6,Y
1680944895.4,286046998.7,P
1680944915.2,286046999.4,P
1680944935.1,286046999.4,N
1680944936.0,286046999.4,N
1680944955.8,286046998.9,N
1680944975.7,286046998.7,Y
1680944995.5,286046998.5,P
1680945015.3,286047000.5,N
1680945035.2,286047002.5,N
1680945055.0,286047001.7,N
1680945055.9,286047001.7,N
1680945075.8,286046999.8,N
1680945095.6,286047001.4,N
1680945115.4,286047001.8,N
1680945135.3,286047002.3,N
1680945155.1,286047002.7,N
1680945175.8,286047000.2,N
1680945195.7,286047001.0,N
1680945215.5,286047000.4,N
1680945235.4,286046998.4,N
1680945255.2,286046999.6,N
1680945275.0,286046998.8,N
1680945275.9,286046998.8,N
1680945295.8,286046998.4,N
1680945315.6,286046998.7,N
1680945335.4,286046998.3,N
1680945355.3,286046998.1,N
1680945375.1,286046998.4,N
1680945395.9,286046999.9,N
1680945415.7,286047001.1,N
1680945435.5,286046998.2,N
1680945455.4,286046999.5,N
1680945475.2,286046999.1,N
1680945495.0,286046998.6,N
1680945495.9,286046998.6,N
1680945515.8,286047000.9,N
1680945535.6,286047001.0,N
1680945555.5,286046998.3,N
1680945575.3,286046996.9,N
1680945595.1,286046998.9,N
1680945615.9,286047000.6,N
1680945635.7,286047004.1,N
1680945655.5,286047003.7,N
1680945675.4,286047004.2,N
1680945695.2,286047001.4,N
1680945715.1,286047000.4,N
1680945716.0,286047000.4,N
1680945735.8,286047000.4,N
1680945755.6,286047000.2,N
1680945775.5,286047001.4,N
1680945795.3,286047003.2,N
1680945815.2,286047005.7,Y
1680945835.9,286047007.1,P
1680945855.7,286047004.8,N
1680945875.6,286047005.3,N
1680945895.4,286047005.3,N
1680945915.2,286047004.9,N
1680945935.1,286047005.5,N
1680945936.0,286047005.5,N
1680945955.8,286047003.4,N
1680945975.7,286047003.5,N
1680945995.5,286047003.6,N
1680946015.3,286047003.6,N
1680946035.2,286047002.7,N
1680946055.0,286046999.8,N
1680946055.9,286047011.9,Y
1680946075.7,286046996.8,P
1680946095.6,286046998.2,N
1680946115.4,286046998.3,N
1680946135.3,286046999.2,N
1680946155.1,286047000.7,N
1680946156.0,286047000.7,N
1680946175.8,286046998.2,N
1680946195.7,286047001.2,N
1680946215.5,286047001.7,N
1680946235.3,286047003.8,N
1680946255.2,286047004.2,N
1680946275.0,286047005.3,N
1680946275.9,286047005.3,N
1680946295.8,286047006.8,N
1680946315.6,286047006.7,N
1680946335.4,286047011.9,Y
1680946355.3,286047007.2,P
1680946375.1,286047006.0,N
1680946395.8,286047001.9,N
1680946415.7,286046999.9,N
1680946435.5,286046999.3,N
1680946455.4,286046997.1,N
1680946475.2,286046995.7,N
1680946495.0,286046995.6,N
1680946495.9,286046995.6,N
1680946515.8,286046995.7,N
1680946535.6,286046993.3,N
1680946555.4,286046995.6,N
1680946575.3,286046996.3,N
1680946595.1,286046994.2,N
1680946615.9,286046991.9,N
1680946635.7,286046993.6,N
1680946655.5,286046996.1,N
1680946675.4,286046996.2,N
1680946695.2,286046999.1,N
1680946715.0,286046999.6,N
1680946715.9,286046999.6,N
1680946735.8,286046998.8,N
1680946755.6,286046997.3,N
1680946775.5,286046997.5,N
1680946795.3,286046997.5,N
1680946815.1,286046997.3,N
1680946835.9,286046995.5,N
1680946855.7,286046995.9,N
1680946875.6,286046995.0,N
1680946895.4,286046997.8,N
1680946915.2,286046993.7,N
1680946935.1,286046993.5,N
1680946936.0,286046993.5,N
1680946955.8,286046995.5,N
1680946975.6,286046997.8,N
1680946995.5,286046995.1,N
1680947015.3,286046996.4,N
1680947035.2,286046994.0,Y
1680947055.9,286046999.3,P
1680947075.7,286046999.6,N
1680947095.6,286046999.3,N
1680947115.4,286047001.2,N
1680947135.2,286047002.5,N
1680947155.1,286046999.7,N
1680947156.0,286046999.7,N
1680947175.8,286047001.6,N
1680947195.7,286047003.2,N
1680947215.5,286047005.6,N
1680947235.3,286047005.0,N
1680947255.2,286047007.0,N
1680947275.9,286047007.5,N
1680947295.7,286047006.2,N
1680947315.6,286047007.8,N
1680947335.4,286047010.5,Y
1680947355.3,286047008.6,P
1680947375.1,286047008.1,N
1680947376.0,286047008.1,N
1680947395.8,286047008.4,Y
1680947415.7,286047002.6,P
1680947435.5,286047003.8,N
1680947455.3,286047004.8,N
1680947475.2,286047006.0,Y
1680947495.0,286046999.7,P
1680947495.9,286046999.7,N
1680947515.8,286047000.2,N
1680947535.6,286047002.4,N
1680947555.4,286047002.0,N
1680947575.3,286047002.4,N
1680947595.1,286047000.1,N
1680947615.8,286047000.0,N
1680947635.7,286047002.8,N
1680947655.5,286047000.3,N
1680947675.4,286047000.7,N
1680947695.2,286046998.9,N
1680947715.0,286046998.6,N
1680947715.9,286046998.6,N
1680947735.8,286046998.6,N
1680947755.6,286046998.2,N
1680947775.4,286047001.1,N
1680947795.3,286046998.3,N
1680947815.1,286046996.8,N
1680947835.9,286046999.3,N
1680947855.7,286047000.9,N
1680947875.5,286046999.0,N
1680947895.4,286046999.1,N
1680947915.2,286047000.7,N
1680947935.0,286047001.0,N
1680947935.9,286047001.0,N
1680947955.8,286047000.1,N
1680947975.6,286047003.5,N
1680947995.5,286047005.7,Y
